QPF
0.02 0.02 0.01 0.01 0.00 0.00 0.00 0.00 0.00 0.00 0.01 0.02 0.08 0.09 0.14 0.11 0.04 0.03 0.03 0.04 0.06 0.06
0.03 0.01 0.00 0.00 0.00 0.01 0.01 0.02 0.03 0.00 0.01 0.01 0.05 0.16 0.22 0.19 0.13 0.07 0.05 0.08 0.10 0.08
0.09 0.06 0.10 0.12 0.16 0.16 0.11 0.14 0.24 0.22 0.07 0.04 0.02 0.04 0.06 0.09 0.12 0.13 0.13 0.12 0.10 0.08
0.28 0.34 0.17 0.19 0.26 0.23 0.19 0.12 0.07 0.13 0.14 0.06 0.04 0.08 0.09 0.10 0.10 0.08 0.11 0.14 0.12 0.05
0.26 0.28 0.11 0.13 0.14 0.12 0.15 0.15 0.11 0.08 0.10 0.15 0.09 0.06 0.08 0.09 0.09 0.04 0.03 0.04 0.03 0.02
0.14 0.12 0.09 0.08 0.05 0.02 0.03 0.03 0.02 0.01 0.01 0.00 0.00 0.01 0.01 0.02 0.04 0.03 0.02 0.01 0.00 0.00
0.01 0.00 0.01 0.01 0.00 0.00 0.00 0.00 0.00 0.00 0.00 0.00 0.00 0.00 0.00 0.00 0.00 0.00 0.00 0.00 0.00 0.00
0.00 0.00 0.00 0.00 0.00 0.00 0.00 0.00 0.00 0.00 0.00 0.00 0.00 0.00 0.00 0.00 0.00 0.00 0.00 0.00 0.00 0.00
0.00 0.00 0.00 0.00 0.00 0.00 0.00 0.00 0.00 0.00 0.00 0.00 0.00 0.00 0.00 0.00 0.00 0.00 0.00 0.00 0.00 0.00
0.00 0.00 0.00 0.00 0.00 0.00 0.00 0.00 0.00 0.00 0.00 0.00 0.00 0.00 0.00 0.00 0.00 0.00 0.00 0.00 0.00 0.00
0.00 0.00 0.00 0.00 0.00 0.00 0.00 0.00 0.00 0.00 0.00 0.00 0.00 0.00 0.00 0.00 0.00 0.00 0.00 0.00 0.00 0.00
0.00 0.00 0.00 0.00 0.00 0.00 0.00 0.00 0.00 0.00 0.00 0.00 0.00 0.00 0.00 0.00 0.00 0.00 0.00 0.00 0.00 0.00
0.00 0.00 0.00 0.00 0.00 0.00 0.00 0.00 0.00 0.00 0.00 0.00 0.00 0.00 0.00 0.00 0.00 0.00 0.00 0.00 0.00 0.00
0.00 0.00 0.00 0.00 0.00 0.00 0.00 0.00 0.00 0.00 0.00 0.00 0.00 0.00 0.00 0.00 0.00 0.00 0.00 0.00 0.00 0.00
MSLP
1009.19 1009.38 1009.56 1009.77 1009.71 1009.93 1010.27 1010.47 1010.60 1010.72 1010.92 1011.05 1011.29 1011.58 1011.62 1011.98 1012.47 1012.84 1013.23 1013.27 1013.34 1013.41
1009.07 1008.96 1009.04 1009.18 1009.50 1009.53 1009.74 1009.90 1010.33 1010.36 1010.48 1010.62 1010.96 1011.18 1011.46 1011.68 1012.20 1012.62 1012.90 1013.11 1013.20 1013.53
1009.82 1009.35 1008.85 1009.20 1009.53 1009.85 1010.19 1010.34 1010.54 1010.30 1010.35 1010.56 1010.91 1011.13 1011.27 1011.62 1011.91 1012.19 1012.47 1012.80 1013.08 1013.10
1010.68 1010.59 1009.78 1010.37 1010.37 1010.78 1010.60 1010.87 1011.04 1011.30 1011.28 1011.27 1011.43 1011.39 1011.34 1011.68 1011.82 1012.12 1012.42 1012.59 1012.70 1012.66
1011.51 1011.16 1010.98 1011.05 1011.24 1011.46 1011.46 1011.72 1012.09 1012.09 1012.16 1012.31 1012.32 1012.51 1012.40 1012.57 1012.84 1012.90 1012.88 1012.93 1013.12 1013.00
1012.36 1012.01 1011.98 1012.00 1012.17 1012.23 1012.25 1012.66 1012.70 1012.55 1012.64 1012.77 1012.99 1012.97 1013.13 1013.17 1013.28 1013.36 1013.35 1013.30 1013.28 1013.23
1013.15 1013.09 1012.92 1012.97 1012.97 1012.99 1013.09 1013.31 1013.40 1013.52 1013.53 1013.55 1013.66 1013.67 1013.69 1013.71 1013.70 1013.71 1013.73 1013.73 1013.65 1013.62
1013.94 1014.05 1014.04 1013.96 1014.08 1014.11 1014.05 1014.14 1014.15 1014.10 1014.21 1014.36 1014.48 1014.69 1014.43 1014.33 1014.19 1014.05 1013.93 1013.90 1013.80 1013.73
1014.98 1014.96 1014.87 1014.83 1014.77 1014.79 1014.80 1014.82 1014.83 1014.86 1014.82 1014.89 1014.91 1015.17 1015.04 1014.71 1014.41 1014.25 1014.23 1013.98 1013.94 1013.90
1015.70 1015.61 1015.59 1015.48 1015.40 1015.36 1015.24 1015.18 1015.21 1015.33 1015.37 1015.36 1015.42 1015.34 1015.33 1015.28 1014.82 1014.67 1014.57 1014.40 1014.27 1014.00
1016.00 1016.08 1015.97 1015.92 1015.81 1015.80 1015.73 1015.69 1015.70 1015.60 1015.67 1015.61 1015.88 1015.94 1015.71 1015.43 1015.01 1014.99 1014.89 1014.71 1014.42 1014.17
1016.41 1016.32 1016.33 1016.32 1016.24 1016.10 1015.82 1015.91 1016.02 1016.06 1015.95 1015.92 1016.12 1016.19 1016.01 1015.61 1015.34 1015.02 1014.90 1014.82 1014.64 1014.56
1016.66 1016.65 1016.49 1016.21 1016.26 1016.37 1016.33 1016.37 1016.45 1016.27 1016.33 1016.53 1016.23 1016.53 1016.30 1015.93 1015.50 1015.38 1015.17 1014.95 1014.61 1014.28
1016.71 1016.63 1016.68 1016.82 1016.91 1016.87 1016.67 1016.64 1016.42 1016.31 1016.38 1016.24 1016.35 1016.34 1016.44 1016.17 1015.59 1015.43 1015.09 1014.78 1014.30 1014.12
Thickness
5579 5585 5591 5596 5602 5606 5609 5612 5616 5619 5620 5621 5622 5620 5621 5619 5614 5610 5606 5605 5606 5610
5576 5584 5590 5595 5598 5603 5607 5610 5609 5613 5614 5615 5614 5615 5613 5613 5608 5605 5603 5601 5601 5601
5565 5577 5587 5589 5592 5594 5595 5597 5598 5604 5607 5608 5608 5608 5608 5606 5604 5601 5601 5598 5596 5598
5559 5567 5577 5576 5580 5579 5586 5588 5588 5590 5592 5596 5597 5599 5601 5598 5598 5596 5595 5595 5594 5592
5553 5563 5568 5570 5570 5574 5577 5576 5575 5578 5581 5582 5582 5582 5583 5581 5579 5579 5581 5583 5583 5585
5548 5553 5559 5560 5562 5566 5567 5564 5566 5570 5572 5572 5572 5573 5573 5573 5573 5574 5575 5577 5578 5578
5542 5547 5551 5551 5555 5558 5559 5558 5559 5558 5561 5564 5565 5567 5567 5568 5568 5569 5569 5569 5569 5569
5537 5538 5542 5545 5546 5547 5550 5550 5552 5555 5556 5557 5556 5555 5558 5559 5560 5561 5562 5561 5560 5560
5531 5533 5536 5539 5541 5543 5544 5545 5547 5548 5550 5550 5550 5548 5549 5551 5554 5554 5552 5552 5551 5548
5527 5529 5531 5534 5536 5538 5540 5541 5542 5542 5542 5543 5543 5543 5542 5540 5543 5542 5540 5539 5538 5536
5526 5527 5530 5532 5534 5535 5535 5536 5537 5537 5536 5536 5533 5531 5531 5532 5533 5530 5527 5525 5524 5523
5524 5526 5527 5528 5528 5529 5532 5530 5529 5528 5528 5526 5523 5520 5520 5521 5521 5519 5516 5512 5509 5504
5521 5522 5523 5525 5524 5523 5523 5521 5519 5519 5516 5512 5513 5507 5507 5506 5506 5503 5500 5498 5495 5491
5519 5519 5518 5516 5515 5514 5514 5512 5511 5510 5506 5505 5502 5498 5494 5493 5495 5491 5488 5484 5480 5474